Vorticity
10 3 5 2 6 2 1 6 14 8 6 -4 7 11 8 7 7 7 7 14 6 11 7 3 -0 5 5 7 -0 -2 1 -5 6 15 5 -4 1 1 -3 -1 2 2 7 9 12 12 8 15 19 13 8 6 5 6
6 11 9 -3 2 9 -1 7 7 6 1 -1 3 5 4 10 3 6 10 12 12 8 11 -0 6 0 7 5 6 -3 -4 -5 -5 10 4 6 4 5 5 2 -0 5 7 4 3 2 5 5 7 8 10 15 20 17
12 9 9 17 -2 9 8 2 4 2 2 -0 4 6 4 5 7 11 5 10 12 14 18 10 2 9 5 -4 -1 -2 6 2 -1 -4 1 -6 4 7 2 3 2 3 3 3 8 1 1 2 4 5 4 7 9 7
14 13 2 1 17 21 20 9 11 2 3 13 -2 7 6 2 7 5 9 5 7 11 22 17 7 6 3 3 7 3 7 14 -1 6 4 3 5 4 4 4 0 1 1 2 3 3 4 6 5 3 1 2 6 9
8 20 16 9 11 15 11 12 19 15 8 -0 5 10 8 7 7 0 6 9 8 -0 5 14 17 8 2 0 6 9 13 -10 6 12 16 10 4 9 7 2 3 -1 6 6 5 6 6 6 7 2 -1 4 6 9
11 11 10 16 12 16 16 14 12 16 14 20 12 15 7 6 5 7 -2 6 14 10 4 -1 6 18 13 8 -0 2 -2 -3 1 5 7 5 0 13 15 14 11 7 8 7 8 6 7 10 10 6 1 0 3 6
11 9 6 10 10 10 6 7 12 13 19 18 17 14 15 13 12 10 9 14 8 11 14 10 5 3 8 7 8 10 13 10 8 12 6 6 12 12 9 7 1 7 9 9 9 7 8 8 7 7 4 3 8 12
11 11 11 13 10 8 10 14 12 12 9 16 12 14 12 22 18 13 12 7 6 5 24 9 25 8 13 11 9 9 10 9 10 11 8 7 4 11 0 9 10 8 8 7 8 9 6 5 6 7 10 12 15 17
9 12 13 13 12 11 12 8 10 10 14 12 13 17 13 17 10 15 13 12 8 7 16 11 18 17 11 10 17 14 12 11 10 6 11 20 10 3 14 8 7 8 10 9 9 11 9 8 12 17 19 17 19 16
11 9 10 10 10 11 11 13 11 9 11 11 12 7 9 12 15 16 19 10 8 14 21 15 12 12 12 13 18 14 12 10 14 12 14 8 1 8 10 13 14 13 11 12 12 14 15 15 13 11 13 16 15 14
13 13 12 11 11 11 12 12 9 12 8 13 14 13 13 11 5 3 2 1 8 7 9 7 4 6 9 16 12 0 2 7 6 3 6 5 6 10 13 7 17 17 15 10 14 18 20 18 18 18 17 14 13 12
15 13 15 14 15 14 12 13 13 12 10 9 11 12 16 15 14 7 10 14 17 19 15 13 11 9 7 11 11 15 15 11 7 12 7 8 12 12 10 13 13 13 14 16 16 13 16 18 20 18 19 17 12 14
17 14 13 14 14 16 16 16 17 17 16 16 16 15 12 12 20 21 21 21 14 12 14 23 18 14 24 20 21 15 19 21 16 14 9 11 18 17 16 9 9 14 14 19 18 16 15 16 15 13 12 10 12 11
16 17 16 16 17 15 17 17 17 18 13 16 17 17 12 19 24 17 20 17 19 19 17 14 11 5 12 15 12 9 12 12 15 12 18 20 18 12 11 15 10 11 16 17 12 9 12 10 10 12 2 2 4 12
19 16 15 17 14 15 14 13 13 16 14 15 13 10 15 16 13 10 10 13 10 7 7 9 9 8 8 10 7 6 7 6 11 15 12 10 10 9 15 21 14 10 3 6 6 5 8 7 7 12 4 9 15 11
15 14 17 17 16 16 14 15 19 14 15 10 12 16 11 15 9 9 10 9 7 5 6 6 4 6 6 4 1 4 10 5 13 11 6 7 10 12 16 22 -0 12 9 1 3 7 8 7 9 8 16 17 16 10
18 20 16 12 12 13 10 11 9 12 5 9 14 14 7 4 9 9 10 13 16 17 18 20 20 18 9 2 9 10 15 15 8 11 14 12 10 9 5 -5 -2 5 8 9 6 9 8 10 11 14 16 29 26 9
7 8 8 9 15 11 11 12 11 5 8 10 9 10 5 8 5 6 10 17 21 19 17 7 11 1 4 15 19 21 18 18 17 16 16 14 13 12 14 18 18 17 17 17 17 17 17 17 16 18 19 19 29 7
15 17 4 16 9 5 5 -8 -4 13 20 1 23 16 11 12 10 21 7 3 12 16 13 15 12 13 24 29 26 20 19 18 20 20 18 17 19 21 21 19 20 20 18 16 15 17 18 19 20 17 15 14 18 20
20 11 -3 2 22 -5 -15 -2 -5 4 3 -4 20 29 25 8 -5 28 27 22 18 4 13 10 10 25 25 25 22 27 25 24 22 22 26 30 28 25 21 16 17 18 17 18 22 23 24 23 24 21 16 16 18 17
13 10 -27 -6 -6 -0 7 6 -0 -0 -3 -7 23 10 -8 16 34 22 18 14 6 8 6 1 22 19 26 20 12 14 17 18 22 22 17 18 15 15 19 20 14 13 18 17 14 16 18 20 18 14 14 17 20 20
15 16 6 12 7 -7 -15 -16 -3 8 -1 -0 13 16 31 24 20 -10 -8 10 16 19 2 12 12 17 18 17 19 19 9 17 2 -2 7 12 15 19 23 28 31 27 25 28 28 19 20 7 12 14 14 15 16 19
-12 -5 -4 -15 -22 -12 -1 9 -1 -10 11 11 23 27 33 27 25 27 15 5 -7 -3 36 27 18 20 10 12 8 9 14 6 15 1 7 24 19 29 26 21 26 27 26 33 17 14 5 7 10 14 16 20 17 18
-8 -8 -7 -5 -2 3 -7 9 32 34 36 28 35 25 8 7 9 -4 -6 2 34 52 40 28 16 8 3 8 10 6 16 9 3 15 6 23 19 7 10 8 15 23 27 21 20 17 13 12 14 17 19 19 12 22
33 44 45 36 42 37 34 21 20 23 20 13 14 2 -5 -3 10 19 34 65 33 18 19 8 4 -3 7 5 1 12 15 5 10 -2 29 16 14 6 10 13 16 15 12 10 7 2 2 3 7 14 18 20 10 26
15 16 17 17 15 16 11 18 12 9 9 12 14 17 13 18 18 13 9 7 21 19 1 2 -3 -3 -2 6 14 11 2 5 5 -5 33 28 21 19 5 3 -5 2 10 7 8 11 10 8 7 7 13 18 13 13
38 31 28 31 31 28 22 11 12 17 19 22 24 23 21 10 11 12 4 19 32 10 3 0 0 6 10 10 9 11 6 11 8 11 13 40 13 14 15 12 2 8 7 11 13 5 4 6 12 12 10 13 11 8
7 13 13 10 18 16 19 15 13 27 29 17 6 10 7 4 36 26 24 18 16 11 9 16 20 11 7 9 12 13 3 2 3 11 13 22 24 11 11 9 1 7 5 9 30 29 19 19 14 20 11 12 15 11
19 11 6 11 8 17 25 32 14 2 5 8 1 11 4 11 5 -1 17 20 17 12 11 12 10 0 -0 -7 12 25 27 25 22 17 18 15 16 21 13 6 -6 5 11 16 17 16 18 16 14 17 16 13 10 12
4 7 12 20 35 43 24 12 16 7 7 7 7 -8 -0 12 19 8 -4 5 -5 -3 8 4 11 39 43 24 18 26 24 21 24 23 27 34 38 31 30 26 27 21 17 14 10 21 19 12 14 14 13 13 16 23
3 10 15 9 -2 -7 -2 3 3 0 7 16 21 17 25 28 41 44 29 22 25 28 40 35 18 17 16 26 17 8 16 20 10 13 12 15 27 22 22 23 23 24 28 30 26 22 16 15 18 21 19 25 24 19
11 9 7 13 23 12 13 12 13 26 -3 2 6 8 10 3 -3 11 11 9 22 17 18 20 22 18 10 9 14 16 14 22 23 22 18 15 14 16 21 21 20 19 18 19 20 21 21 21 21 21 18 15 19 23
13 10 13 18 10 7 1 -0 1 4 1 3 18 16 13 10 8 17 19 29 34 26 16 8 12 14 15 12 13 14 15 14 15 16 16 16 16 16 17 10 12 19 20 22 23 20 17 17 14 15 19 21 23 21
Height
5689 5692 5695 5696 5697 5700 5701 5704 5705 5704 5706 5707 5708 5710 5711 5711 5712 5710 5709 5708 5709 5709 5710 5709 5707 5708 5708 5706 5707 5707 5706 5703 5702 5699 5699 5697 5695 5695 5693 5692 5690 5688 5684 5684 5680 5677 5676 5676 5673 5672 5669 5667 5664 5662
5669 5673 5678 5680 5682 5685 5686 5688 5690 5690 5691 5692 5693 5694 5696 5696 5697 5698 5697 5695 5694 5697 5699 5698 5697 5696 5696 5698 5694 5695 5695 5692 5691 5691 5689 5687 5687 5687 5684 5683 5681 5680 5678 5673 5673 5668 5664 5658 5656 5656 5656 5656 5656 5654
5650 5654 5657 5661 5664 5666 5669 5670 5672 5675 5674 5676 5677 5678 5679 5679 5679 5681 5680 5680 5681 5681 5683 5684 5683 5682 5683 5681 5684 5686 5680 5678 5678 5676 5677 5676 5676 5676 5674 5674 5670 5669 5666 5663 5658 5660 5654 5651 5648 5644 5642 5641 5637 5634
5631 5634 5637 5640 5643 5646 5648 5653 5655 5657 5658 5659 5661 5663 5663 5663 5662 5663 5664 5663 5664 5666 5666 5668 5666 5668 5669 5668 5665 5666 5668 5666 5664 5663 5660 5660 5661 5659 5660 5658 5658 5657 5651 5646 5648 5646 5641 5638 5634 5633 5630 5627 5622 5620
5613 5616 5618 5621 5624 5627 5629 5632 5635 5638 5640 5642 5644 5645 5645 5646 5646 5645 5647 5648 5648 5650 5650 5650 5651 5651 5650 5650 5650 5649 5647 5647 5647 5647 5646 5646 5644 5643 5643 5643 5646 5639 5634 5630 5630 5628 5624 5623 5620 5615 5612 5609 5605 5602
5593 5596 5600 5604 5607 5609 5611 5613 5615 5618 5619 5622 5624 5626 5628 5629 5628 5627 5629 5631 5631 5628 5629 5634 5638 5637 5634 5634 5632 5631 5630 5630 5629 5630 5631 5630 5630 5626 5626 5627 5630 5627 5617 5614 5612 5610 5606 5604 5601 5597 5593 5591 5588 5583
5576 5579 5581 5584 5588 5591 5594 5594 5596 5598 5601 5603 5604 5606 5608 5608 5609 5610 5612 5613 5610 5608 5608 5612 5617 5620 5619 5615 5613 5612 5609 5610 5611 5612 5613 5613 5612 5609 5610 5613 5614 5603 5599 5597 5593 5590 5592 5589 5586 5581 5578 5573 5568 5564
5557 5561 5564 5568 5569 5571 5574 5577 5579 5581 5583 5584 5586 5586 5588 5590 5591 5593 5590 5592 5591 5590 5589 5591 5599 5604 5599 5593 5592 5589 5589 5589 5591 5592 5597 5596 5595 5591 5594 5600 5592 5589 5583 5578 5574 5571 5568 5567 5565 5561 5558 5555 5550 5546
5538 5542 5545 5549 5552 5553 5558 5558 5560 5563 5566 5567 5568 5569 5570 5571 5573 5574 5573 5571 5570 5571 5571 5576 5582 5582 5576 5574 5573 5570 5569 5570 5571 5574 5575 5572 5575 5576 5579 5570 5571 5567 5564 5561 5556 5553 5552 5548 5545 5542 5539 5535 5531 5528
5520 5525 5528 5532 5534 5535 5538 5541 5544 5545 5548 5549 5552 5553 5555 5556 5554 5554 5553 5553 5552 5552 5553 5560 5560 5558 5556 5556 5555 5554 5551 5550 5550 5555 5550 5552 5560 5562 5553 5546 5548 5544 5541 5541 5539 5537 5534 5530 5527 5524 5521 5518 5516 5514
5502 5506 5511 5515 5516 5518 5521 5524 5526 5528 5531 5533 5534 5536 5536 5536 5535 5534 5534 5536 5535 5536 5536 5541 5540 5538 5539 5538 5538 5533 5532 5530 5531 5536 5529 5530 5540 5541 5534 5528 5525 5523 5522 5522 5520 5518 5517 5514 5510 5507 5504 5500 5498 5496
5484 5489 5493 5496 5499 5502 5504 5506 5509 5511 5513 5515 5518 5518 5518 5518 5516 5516 5518 5518 5519 5518 5519 5521 5523 5521 5521 5521 5517 5515 5513 5510 5513 5513 5508 5510 5521 5517 5510 5506 5504 5501 5501 5502 5502 5500 5499 5496 5493 5491 5489 5485 5483 5480
5469 5473 5477 5480 5482 5485 5488 5490 5493 5495 5497 5500 5501 5502 5502 5501 5500 5499 5500 5500 5500 5500 5502 5503 5504 5504 5503 5503 5499 5497 5494 5495 5493 5491 5492 5500 5499 5495 5492 5489 5485 5483 5483 5484 5482 5481 5480 5478 5476 5474 5473 5470 5469 5467
5456 5460 5464 5466 5469 5471 5474 5476 5478 5481 5484 5486 5487 5489 5488 5486 5484 5484 5486 5487 5486 5486 5487 5488 5488 5487 5485 5484 5483 5481 5479 5476 5474 5474 5480 5480 5479 5475 5471 5470 5468 5465 5464 5464 5464 5464 5463 5461 5460 5459 5457 5454 5451 5450
5445 5448 5451 5454 5457 5459 5461 5462 5465 5467 5470 5473 5474 5477 5475 5472 5472 5472 5473 5474 5474 5474 5474 5473 5471 5471 5469 5467 5466 5464 5460 5459 5461 5466 5467 5464 5461 5458 5453 5450 5450 5448 5446 5447 5446 5445 5445 5444 5443 5442 5440 5437 5434 5431
5434 5438 5442 5444 5445 5446 5448 5451 5453 5455 5456 5459 5463 5465 5462 5459 5459 5459 5459 5460 5458 5458 5456 5454 5452 5451 5451 5450 5450 5447 5445 5447 5453 5447 5445 5443 5442 5441 5438 5435 5431 5430 5430 5428 5428 5427 5426 5426 5423 5420 5419 5419 5416 5414
5425 5431 5432 5433 5435 5436 5436 5439 5440 5443 5444 5447 5453 5452 5449 5449 5448 5447 5446 5444 5441 5437 5435 5433 5430 5428 5428 5428 5432 5434 5431 5433 5430 5427 5424 5422 5419 5418 5418 5416 5416 5414 5410 5407 5405 5406 5405 5403 5402 5399 5397 5399 5396 5396
5419 5423 5424 5424 5425 5425 5427 5428 5429 5429 5431 5435 5438 5442 5437 5437 5436 5435 5432 5428 5426 5423 5419 5417 5414 5410 5409 5410 5413 5415 5407 5406 5403 5401 5400 5398 5396 5394 5393 5392 5392 5391 5389 5387 5387 5386 5385 5383 5379 5379 5376 5375 5374 5377
5412 5414 5415 5416 5417 5418 5419 5418 5418 5415 5417 5422 5425 5427 5422 5421 5421 5421 5418 5415 5411 5406 5402 5399 5393 5393 5395 5393 5389 5387 5386 5384 5380 5379 5378 5377 5376 5375 5373 5372 5372 5370 5368 5367 5365 5364 5362 5361 5360 5359 5357 5355 5354 5357
5403 5405 5406 5407 5409 5408 5406 5405 5407 5404 5405 5408 5407 5409 5405 5404 5405 5402 5401 5400 5395 5388 5386 5383 5383 5381 5378 5376 5373 5369 5367 5366 5363 5359 5359 5362 5363 5359 5357 5354 5351 5350 5347 5347 5347 5346 5344 5343 5343 5340 5338 5337 5336 5338
5395 5396 5398 5398 5398 5397 5395 5393 5391 5390 5390 5390 5392 5391 5388 5389 5388 5387 5386 5384 5379 5376 5374 5375 5371 5369 5366 5362 5360 5357 5353 5353 5352 5349 5347 5345 5346 5341 5340 5338 5333 5330 5328 5328 5328 5330 5328 5327 5326 5324 5322 5322 5321 5321
5389 5390 5388 5386 5386 5383 5382 5382 5382 5382 5380 5379 5379 5377 5374 5373 5374 5374 5372 5366 5364 5367 5365 5363 5359 5354 5351 5349 5348 5346 5345 5343 5341 5339 5338 5333 5326 5323 5319 5317 5314 5312 5311 5311 5312 5314 5314 5314 5313 5311 5309 5309 5308 5308
5377 5380 5379 5378 5375 5371 5371 5372 5372 5372 5369 5368 5366 5362 5362 5361 5360 5358 5353 5355 5354 5356 5351 5345 5345 5343 5339 5340 5339 5339 5337 5333 5331 5329 5326 5321 5316 5311 5306 5302 5300 5296 5295 5297 5297 5298 5301 5302 5301 5299 5298 5296 5295 5295
5362 5364 5364 5362 5360 5359 5360 5362 5361 5360 5357 5357 5354 5352 5351 5350 5349 5345 5339 5342 5344 5340 5336 5336 5334 5332 5332 5331 5330 5328 5327 5323 5319 5317 5315 5309 5306 5304 5300 5297 5294 5291 5288 5287 5287 5289 5290 5290 5289 5288 5286 5284 5284 5284
5347 5347 5346 5345 5346 5347 5348 5349 5349 5348 5348 5346 5344 5342 5341 5341 5336 5332 5330 5334 5332 5331 5329 5327 5326 5324 5321 5320 5320 5318 5318 5312 5307 5303 5305 5298 5295 5294 5292 5290 5288 5286 5284 5282 5282 5280 5280 5279 5278 5277 5275 5274 5274 5273
5336 5337 5337 5336 5335 5336 5338 5338 5338 5338 5338 5336 5334 5334 5333 5328 5324 5321 5327 5327 5325 5323 5321 5318 5315 5313 5312 5310 5307 5306 5306 5300 5294 5290 5289 5283 5281 5281 5282 5281 5281 5282 5277 5274 5272 5271 5270 5270 5268 5267 5266 5266 5265 5264
5329 5329 5329 5328 5328 5329 5329 5329 5328 5328 5327 5327 5327 5324 5321 5316 5313 5317 5317 5316 5314 5314 5311 5310 5308 5305 5302 5300 5297 5294 5291 5288 5281 5278 5276 5273 5272 5271 5270 5269 5269 5270 5265 5264 5262 5260 5259 5259 5257 5257 5256 5257 5256 5255
5323 5322 5321 5321 5320 5322 5320 5320 5320 5320 5321 5320 5318 5314 5311 5310 5309 5309 5308 5309 5306 5303 5303 5302 5299 5295 5290 5288 5285 5281 5278 5272 5266 5262 5260 5260 5260 5258 5257 5255 5255 5255 5253 5251 5248 5246 5246 5246 5246 5246 5245 5246 5247 5246
5319 5317 5316 5316 5314 5312 5313 5314 5315 5315 5314 5310 5307 5306 5305 5305 5304 5302 5302 5298 5296 5293 5292 5290 5290 5284 5279 5275 5270 5266 5262 5256 5250 5246 5244 5243 5245 5247 5242 5241 5241 5239 5237 5235 5234 5232 5232 5233 5234 5235 5235 5235 5236 5236
5316 5314 5315 5315 5313 5312 5311 5308 5309 5308 5305 5304 5302 5300 5299 5298 5297 5292 5290 5289 5286 5282 5279 5276 5273 5268 5264 5259 5255 5253 5248 5243 5240 5234 5231 5231 5230 5229 5227 5225 5223 5223 5222 5222 5222 5221 5221 5222 5223 5224 5225 5226 5225 5225
5311 5312 5312 5311 5311 5309 5307 5306 5305 5304 5303 5301 5297 5292 5290 5286 5284 5284 5277 5274 5271 5270 5267 5264 5260 5257 5253 5249 5246 5243 5241 5237 5231 5227 5223 5221 5219 5217 5214 5212 5211 5211 5210 5211 5212 5212 5212 5212 5213 5214 5215 5216 5216 5217
5308 5309 5308 5307 5308 5305 5302 5300 5299 5299 5298 5295 5292 5286 5283 5277 5274 5272 5269 5266 5263 5260 5258 5255 5252 5250 5246 5243 5240 5235 5231 5229 5225 5221 5217 5214 5212 5210 5207 5205 5204 5203 5203 5203 5203 5203 5203 5204 5205 5206 5207 5208 5209 5211
5305 5305 5303 5301 5300 5299 5297 5293 5293 5292 5292 5289 5287 5283 5279 5273 5268 5265 5263 5261 5258 5256 5253 5251 5248 5245 5241 5238 5234 5231 5227 5223 5219 5214 5210 5207 5205 5203 5201 5199 5198 5197 5196 5196 5196 5196 5197 5198 5199 5200 5201 5203 5206 5209